Taos, NM

5:37 PM MDT on August 19, 2017 (GMT -0600)
Taos Municipal

Weather History for KSKX - April, 2014

Change the Weather History Date:

Tuesday, April 29, 2014

  Actual Average Record
Temperature  
Mean Temperature 36 °F -  
Max Temperature 50 °F 62 °F 77 °F (2013)
Min Temperature 23 °F 29 °F 23 °F (2014)
Degree Days  
Heating Degree Days 28    
Moisture  
Dew Point 9 °F    
Average Humidity 33    
Maximum Humidity 50    
Minimum Humidity 17    
Precipitation  
Precipitation 0.00 in - - ()
Sea Level Pressure  
Sea Level Pressure 30.16 in    
Wind  
Wind Speed 10 mph (North)    
Max Wind Speed 18 mph    
Max Gust Speed 25 mph    
Visibility 10 miles    
Events      
Averages and records for this station are not official NWS values.
T = Trace of Precipitation, MM = Missing Value Source: NWS Daily Summary

Daily Weather History Graph

Daily Weather History Graph

Search for Another Location

Airport or City:

Trip Planner

Search our weather history database for the weather conditions in past years. The results will help you decide how hot, cold, wet, or windy it might be!

Date:

Astronomy

Apr. 29, 2014 Rise Set
Actual Time 6:11 AM MDT 7:49 PM MDT
Civil Twilight 5:44 AM MDT 8:16 PM MDT
Nautical Twilight 5:10 AM MDT 8:49 PM MDT
Astronomical Twilight 4:35 AM MDT 9:24 PM MDT
Moon 6:31 AM MDT (4/29) 8:31 PM MDT (4/29)
Length of Visible Light 14h 32m
Length of Day
13h 37m
New Moon, 0% of the Moon is Illuminated
Apr 29
New Moon
May 6
First Quarter
May 14
Full
May 21
Last Quarter
May 28
New

Hourly Weather History & Observations

Time (MDT) Temp. Windchill Dew Point Humidity Pressure Visibility Wind Dir Wind Speed Gust Speed Precip Events Conditions
12:15 AM 33.8 °F 24.8 °F 8.6 °F 35% 30.09 in 10.0 mi North 12.7 mph - N/A   Mostly Cloudy
12:35 AM 30.2 °F 21.3 °F 6.8 °F 37% 30.09 in 10.0 mi North 10.4 mph - N/A   Clear
12:55 AM 30.2 °F 21.3 °F 6.8 °F 37% 30.09 in 10.0 mi North 10.4 mph - N/A   Clear
1:15 AM 28.4 °F 19.1 °F 6.8 °F 40% 30.09 in 10.0 mi North 10.4 mph - N/A   Partly Cloudy
1:35 AM 28.4 °F 19.1 °F 6.8 °F 40% 30.09 in 10.0 mi North 10.4 mph - N/A   Scattered Clouds
1:55 AM 26.6 °F 17.5 °F 6.8 °F 43% 30.10 in 10.0 mi North 9.2 mph - N/A   Clear
2:15 AM 26.6 °F 16.8 °F 6.8 °F 43% 30.10 in 10.0 mi North 10.4 mph - N/A   Clear
2:35 AM 26.6 °F 15.7 °F 6.8 °F 43% 30.09 in 10.0 mi NNW 12.7 mph - N/A   Clear
2:55 AM 24.8 °F 13.4 °F 6.8 °F 46% 30.09 in 10.0 mi NNW 12.7 mph - N/A   Clear
3:15 AM 26.6 °F 16.2 °F 8.6 °F 47% 30.09 in 10.0 mi North 11.5 mph - N/A   Clear
3:35 AM 26.6 °F 17.5 °F 8.6 °F 47% 30.11 in 10.0 mi NE 9.2 mph - N/A   Clear
3:55 AM 24.8 °F 14.0 °F 8.6 °F 50% 30.11 in 10.0 mi North 11.5 mph - N/A   Clear
4:15 AM 26.6 °F 15.7 °F 8.6 °F 47% 30.11 in 10.0 mi North 12.7 mph - N/A   Clear
4:35 AM 28.4 °F 20.4 °F 8.6 °F 43% 30.11 in 10.0 mi North 8.1 mph 19.6 mph N/A   Clear
4:55 AM 26.6 °F 17.5 °F 6.8 °F 43% 30.12 in 10.0 mi North 9.2 mph - N/A   Clear
5:15 AM 28.4 °F 19.7 °F 6.8 °F 40% 30.12 in 10.0 mi North 9.2 mph 18.4 mph N/A   Clear
5:35 AM 28.4 °F 18.0 °F 6.8 °F 40% 30.12 in 10.0 mi NNE 12.7 mph 19.6 mph N/A   Clear
5:55 AM 28.4 °F 19.7 °F 6.8 °F 40% 30.13 in 10.0 mi North 9.2 mph 17.3 mph N/A   Clear
6:15 AM 24.8 °F 20.5 °F 6.8 °F 46% 30.14 in 10.0 mi ENE 3.5 mph - N/A   Clear
6:35 AM 23.0 °F 14.7 °F 6.8 °F 50% 30.16 in 10.0 mi East 6.9 mph - N/A   Clear
6:55 AM 24.8 °F 15.3 °F 8.6 °F 50% 30.17 in 10.0 mi East 9.2 mph - N/A   Clear
7:15 AM 26.6 °F 20.0 °F 8.6 °F 47% 30.17 in 10.0 mi ESE 5.8 mph - N/A   Clear
7:35 AM 26.6 °F 21.2 °F 8.6 °F 47% 30.18 in 10.0 mi SSE 4.6 mph - N/A   Clear
7:55 AM 28.4 °F - 8.6 °F 43% 30.19 in 10.0 mi Calm Calm - N/A   Clear
8:15 AM 30.2 °F - 8.6 °F 40% 30.19 in 10.0 mi Calm Calm - N/A   Clear
8:35 AM 30.2 °F - 8.6 °F 40% 30.20 in 10.0 mi Calm Calm - N/A   Clear
8:55 AM 35.6 °F - 10.4 °F 35% 30.20 in 10.0 mi Calm Calm - N/A   Clear
9:15 AM 37.4 °F 30.3 °F 10.4 °F 33% 30.20 in 10.0 mi NNE 10.4 mph - N/A   Clear
9:35 AM 39.2 °F 30.2 °F 10.4 °F 31% 30.20 in 10.0 mi North 17.3 mph 23.0 mph N/A   Clear
9:55 AM 39.2 °F 31.2 °F 10.4 °F 31% 30.19 in 10.0 mi North 13.8 mph 19.6 mph N/A   Clear
10:15 AM 39.2 °F 30.8 °F 10.4 °F 31% 30.19 in 10.0 mi NNW 15.0 mph 24.2 mph N/A   Clear
10:35 AM 41.0 °F 33.5 °F 8.6 °F 26% 30.20 in 10.0 mi NNW 13.8 mph 19.6 mph N/A   Clear
10:55 AM 42.8 °F 35.4 °F 10.4 °F 27% 30.20 in 10.0 mi NNW 15.0 mph 20.7 mph N/A   Clear
11:15 AM 42.8 °F 35.1 °F 10.4 °F 27% 30.20 in 10.0 mi North 16.1 mph 20.7 mph N/A   Clear
11:35 AM 42.8 °F 36.2 °F 10.4 °F 27% 30.19 in 10.0 mi North 12.7 mph 18.4 mph N/A   Clear
11:55 AM 44.6 °F 37.8 °F 8.6 °F 23% 30.19 in 10.0 mi North 15.0 mph 20.7 mph N/A   Clear
12:15 PM 44.6 °F 37.8 °F 8.6 °F 23% 30.18 in 10.0 mi NNW 15.0 mph 21.9 mph N/A   Clear
12:35 PM 46.4 °F 39.5 °F 10.4 °F 23% 30.18 in 10.0 mi NNW 17.3 mph 23.0 mph N/A   Clear
12:55 PM 48.2 °F - 8.6 °F 20% 30.17 in 10.0 mi North 18.4 mph 25.3 mph N/A   Clear
1:15 PM 48.2 °F - 8.6 °F 20% 30.17 in 10.0 mi North 15.0 mph 24.2 mph N/A   Clear
1:35 PM 48.2 °F - 8.6 °F 20% 30.16 in 10.0 mi North 5.8 mph 23.0 mph N/A   Clear
1:55 PM 46.4 °F 42.9 °F 8.6 °F 22% 30.15 in 10.0 mi ENE 6.9 mph - N/A   Mostly Cloudy
2:15 PM 48.2 °F - 8.6 °F 20% 30.15 in 10.0 mi North 5.8 mph 18.4 mph N/A   Scattered Clouds
2:35 PM 50.0 °F - 8.6 °F 19% 30.14 in 10.0 mi North 10.4 mph 16.1 mph N/A   Partly Cloudy
3:15 PM 50.0 °F - 6.8 °F 17% 30.13 in 10.0 mi North 5.8 mph - N/A   Mostly Cloudy
3:35 PM 48.2 °F - 6.8 °F 19% 30.13 in 10.0 mi West 5.8 mph - N/A   Mostly Cloudy
3:55 PM 48.2 °F - 6.8 °F 19% 30.13 in 10.0 mi Calm Calm - N/A   Mostly Cloudy
4:15 PM 48.2 °F - 6.8 °F 19% 30.13 in 10.0 mi NNE 11.5 mph 17.3 mph N/A   Overcast
4:35 PM 48.2 °F - 6.8 °F 19% 30.13 in 10.0 mi NNE 9.2 mph 19.6 mph N/A   Overcast
4:55 PM 48.2 °F - 6.8 °F 19% 30.13 in 10.0 mi North 8.1 mph - N/A   Mostly Cloudy
5:15 PM 50.0 °F - 10.4 °F 20% 30.13 in 10.0 mi North 17.3 mph 23.0 mph N/A   Scattered Clouds
5:35 PM 48.2 °F - 10.4 °F 22% 30.14 in 10.0 mi NNW 13.8 mph 24.2 mph N/A   Scattered Clouds
5:55 PM 48.2 °F - 10.4 °F 22% 30.14 in 10.0 mi NNW 11.5 mph - N/A   Mostly Cloudy
6:15 PM 50.0 °F - 10.4 °F 20% 30.14 in 10.0 mi North 16.1 mph 23.0 mph N/A   Mostly Cloudy
6:35 PM 48.2 °F - 8.6 °F 20% 30.14 in 10.0 mi North 10.4 mph - N/A   Mostly Cloudy
6:55 PM 48.2 °F - 8.6 °F 20% 30.14 in 10.0 mi NNW 16.1 mph - N/A   Mostly Cloudy
7:15 PM 46.4 °F 40.7 °F 10.4 °F 23% 30.15 in 10.0 mi NNW 12.7 mph - N/A   Scattered Clouds
7:35 PM 44.6 °F 39.7 °F 10.4 °F 25% 30.16 in 10.0 mi NNW 9.2 mph - N/A   Partly Cloudy
7:55 PM 42.8 °F 36.6 °F 10.4 °F 27% 30.17 in 10.0 mi NNW 11.5 mph - N/A   Clear
8:15 PM 41.0 °F 35.2 °F 12.2 °F 31% 30.18 in 10.0 mi NNW 9.2 mph - N/A   Clear
8:35 PM 39.2 °F 35.0 °F 12.2 °F 33% 30.18 in 10.0 mi NNW 5.8 mph - N/A   Clear
8:55 PM 37.4 °F 31.4 °F 10.4 °F 33% 30.19 in 10.0 mi NNW 8.1 mph - N/A   Clear
9:15 PM 39.2 °F 35.0 °F 12.2 °F 33% 30.19 in 10.0 mi North 5.8 mph - N/A   Partly Cloudy
9:35 PM 37.4 °F - 12.2 °F 36% 30.20 in 10.0 mi Calm Calm - N/A   Scattered Clouds
9:55 PM 37.4 °F 32.8 °F 12.2 °F 36% 30.21 in 10.0 mi NE 5.8 mph - N/A   Mostly Cloudy
10:15 PM 35.6 °F 29.2 °F 12.2 °F 38% 30.21 in 10.0 mi NNE 8.1 mph - N/A   Mostly Cloudy
10:35 PM 35.6 °F 28.6 °F 10.4 °F 35% 30.22 in 10.0 mi North 9.2 mph - N/A   Partly Cloudy
10:55 PM 33.8 °F 27.0 °F 8.6 °F 35% 30.22 in 10.0 mi North 8.1 mph - N/A   Clear
11:15 PM 32.0 °F 24.8 °F 8.6 °F 38% 30.23 in 10.0 mi NNW 8.1 mph - N/A   Clear
11:35 PM 30.2 °F 21.9 °F 8.6 °F 40% 30.23 in 10.0 mi NNW 9.2 mph - N/A   Clear
11:55 PM 30.2 °F 21.9 °F 8.6 °F 40% 30.23 in 10.0 mi North 9.2 mph - N/A   Clear